User: anonymous   Login
Location: Unspecified
(0.0000°N, 0.0000°E)
Time: 22:23:11
(UTC+00:00)
Language:

LEMUR 2 YNDRD - Orbit

View from above orbital plane
View from above orbital plane
View from above satellite
View from above satellite

Ground track
Ground track

The orbit data is extracted from the following two-line orbital elements,

1 44404U 19038U   21207.36642750  .00001698  00000-0  97993-4 0  9997
2 44404  97.5896 171.4330 0021633 175.9171 184.2241 15.13537549113658
Epoch (UTC): 26 July 2021 08:47:39
Eccentricity: 0.0021633
inclination: 97.5896°
perigee height: 510 km
apogee height: 540 km
right ascension of ascending node: 171.4330°
argument of perigee: 175.9171°
revolutions per day: 15.13537549
mean anomaly at epoch: 184.2241°
orbit number at epoch: 11365

The dashed part of the orbit path shows where the satellite is in the earth's shadow,  

DLR